Sturgis, MI

8:14 AM EDT on August 23, 2017 (GMT -0400)
Kirsch Municipal

Weather History for KIRS - July, 2013

Change the Weather History Date:

Friday, July 26, 2013

  Actual Average (KHAI) Record (KHAI)
Temperature  
Mean Temperature 65 °F -  
Max Temperature 73 °F 83 °F 93 °F (1953)
Min Temperature 57 °F 59 °F 46 °F (1977)
Growing Degree Days 15 (Base 50)    
Moisture  
Dew Point 59 °F    
Average Humidity 77    
Maximum Humidity 100    
Minimum Humidity 57    
Precipitation  
Precipitation 0.00 in - - ()
Sea Level Pressure  
Sea Level Pressure 30.02 in    
Wind  
Wind Speed 3 mph (SSW)    
Max Wind Speed 14 mph    
Max Gust Speed 17 mph    
Visibility 10 miles    
Events Rain    
Averages and records for this station are not official NWS values.
T = Trace of Precipitation, MM = Missing Value Source: NWS Daily Summary

Daily Weather History Graph

Daily Weather History Graph

Search for Another Location

Airport or City:

Trip Planner

Search our weather history database for the weather conditions in past years. The results will help you decide how hot, cold, wet, or windy it might be!

Date:

Astronomy

Jul. 26, 2013 Rise Set
Actual Time 6:30 AM EDT 9:05 PM EDT
Civil Twilight 5:58 AM EDT 9:37 PM EDT
Nautical Twilight 5:17 AM EDT 10:17 PM EDT
Astronomical Twilight 4:32 AM EDT 11:02 PM EDT
Moon 11:13 PM EDT (7/26) 11:10 AM EDT (7/26)
Length of Visible Light 15h 39m
Length of Day
14h 35m
Waning Gibbous, 80% of the Moon is Illuminated
Jul 26
Waning Gibbous
Jul 29
Last Quarter
Aug 6
New
Aug 14
First Quarter
Aug 20
Full

Hourly Weather History & Observations

Time (EDT) Temp. Dew Point Humidity Pressure Visibility Wind Dir Wind Speed Gust Speed Precip Events Conditions
12:15 AM 60.8 °F 57.2 °F 88% 30.10 in 10.0 mi Calm Calm - N/A   Clear
12:35 AM 60.8 °F 57.2 °F 88% 30.10 in 10.0 mi Calm Calm - N/A   Clear
12:55 AM 60.8 °F 55.4 °F 82% 30.09 in 10.0 mi Calm Calm - N/A   Clear
1:14 AM 60.8 °F 55.4 °F 82% 30.09 in 10.0 mi Calm Calm - N/A   Clear
1:35 AM 60.8 °F 55.4 °F 82% 30.08 in 10.0 mi Calm Calm - N/A   Clear
1:55 AM 60.8 °F 55.4 °F 82% 30.08 in 10.0 mi Calm Calm - N/A   Clear
2:14 AM 62.6 °F 57.2 °F 82% 30.08 in 10.0 mi Calm Calm - N/A   Clear
2:35 AM 60.8 °F 55.4 °F 82% 30.08 in 10.0 mi Calm Calm - N/A   Clear
2:55 AM 60.8 °F 55.4 °F 82% 30.07 in 10.0 mi Calm Calm - N/A   Clear
3:14 AM 60.8 °F 55.4 °F 82% 30.07 in 10.0 mi Calm Calm - N/A   Clear
3:35 AM 60.8 °F 55.4 °F 82% 30.06 in 10.0 mi Calm Calm - N/A   Clear
3:55 AM 60.8 °F 55.4 °F 82% 30.06 in 10.0 mi Calm Calm - N/A   Clear
4:14 AM 59.0 °F 55.4 °F 88% 30.07 in 10.0 mi Calm Calm - N/A   Clear
4:35 AM 59.0 °F 55.4 °F 88% 30.07 in 10.0 mi Calm Calm - N/A   Clear
4:54 AM 59.0 °F 55.4 °F 88% 30.08 in 10.0 mi Calm Calm - N/A   Clear
5:15 AM 60.8 °F 55.4 °F 82% 30.07 in 10.0 mi Calm Calm - N/A   Clear
5:35 AM 59.0 °F 55.4 °F 88% 30.06 in 10.0 mi Calm Calm - N/A   Clear
5:54 AM 57.2 °F 55.4 °F 94% 30.07 in 10.0 mi Calm Calm - N/A   Clear
6:15 AM 57.2 °F 55.4 °F 94% 30.07 in 10.0 mi Calm Calm - N/A   Clear
6:35 AM 57.2 °F 55.4 °F 94% 30.07 in 10.0 mi Calm Calm - N/A   Clear
6:54 AM 59.0 °F 55.4 °F 88% 30.07 in 10.0 mi Calm Calm - N/A   Clear
7:15 AM 60.8 °F 55.4 °F 82% 30.06 in 10.0 mi Calm Calm - N/A   Clear
7:35 AM 60.8 °F 57.2 °F 88% 30.06 in 10.0 mi South 6.9 mph - N/A   Clear
7:54 AM 60.8 °F 57.2 °F 88% 30.07 in 10.0 mi South 4.6 mph - N/A   Clear
8:15 AM 60.8 °F 57.2 °F 88% 30.07 in 10.0 mi Calm Calm - N/A   Clear
8:34 AM 62.6 °F 57.2 °F 82% 30.08 in 10.0 mi Calm Calm - N/A   Clear
8:55 AM 64.4 °F 57.2 °F 77% 30.07 in 10.0 mi SSW 5.8 mph - N/A   Clear
9:15 AM 64.4 °F 57.2 °F 77% 30.07 in 10.0 mi SSW 4.6 mph - N/A   Clear
9:34 AM 66.2 °F 59.0 °F 78% 30.07 in 10.0 mi SSW 6.9 mph - N/A   Clear
9:55 AM 69.8 °F 59.0 °F 68% 30.07 in 10.0 mi SSW 8.1 mph - N/A   Clear
10:15 AM 69.8 °F 60.8 °F 73% 30.07 in 10.0 mi SSW 9.2 mph - N/A   Clear
10:34 AM 69.8 °F 59.0 °F 68% 30.07 in 10.0 mi SSW 10.4 mph - N/A   Clear
10:55 AM 69.8 °F 59.0 °F 68% 30.07 in 10.0 mi SSW 9.2 mph - N/A   Clear
11:14 AM 71.6 °F 60.8 °F 69% 30.07 in 10.0 mi South 6.9 mph - N/A   Clear
11:35 AM 71.6 °F 59.0 °F 64% 30.06 in 10.0 mi SSW 6.9 mph - N/A   Clear
11:55 AM 71.6 °F 59.0 °F 64% 30.05 in 10.0 mi South 6.9 mph - N/A   Clear
12:14 PM 71.6 °F 59.0 °F 64% 30.05 in 10.0 mi SSW 8.1 mph - N/A   Clear
12:35 PM 73.4 °F 59.0 °F 61% 30.05 in 10.0 mi SSW 11.5 mph - N/A   Clear
12:55 PM 73.4 °F 60.8 °F 65% 30.05 in 10.0 mi SSW 8.1 mph - N/A   Clear
1:14 PM 73.4 °F 57.2 °F 57% 30.04 in 10.0 mi South 9.2 mph - N/A   Clear
1:35 PM 73.4 °F 57.2 °F 57% 30.03 in 10.0 mi SSW 10.4 mph - N/A   Clear
1:55 PM 73.4 °F 57.2 °F 57% 30.03 in 10.0 mi South 9.2 mph - N/A   Clear
2:15 PM 73.4 °F 59.0 °F 61% 30.02 in 10.0 mi South 8.1 mph - N/A   Clear
2:35 PM 73.4 °F 59.0 °F 61% 30.02 in 10.0 mi SSW 13.8 mph - N/A   Scattered Clouds
2:54 PM 73.4 °F 59.0 °F 61% 30.02 in 10.0 mi South 12.7 mph - N/A   Scattered Clouds
3:15 PM 73.4 °F 59.0 °F 61% 30.01 in 10.0 mi SSW 12.7 mph - N/A   Clear
3:35 PM 73.4 °F 59.0 °F 61% 30.00 in 10.0 mi South 12.7 mph 17.3 mph N/A   Scattered Clouds
3:54 PM 73.4 °F 57.2 °F 57% 30.00 in 10.0 mi South 11.5 mph - N/A   Scattered Clouds
4:15 PM 71.6 °F 57.2 °F 60% 29.99 in 10.0 mi SSW 10.4 mph - N/A   Clear
4:35 PM 73.4 °F 57.2 °F 57% 29.99 in 10.0 mi South 9.2 mph - N/A   Clear
4:54 PM 73.4 °F 59.0 °F 61% 29.98 in 10.0 mi SSW 9.2 mph - N/A   Clear
5:15 PM 73.4 °F 60.8 °F 65% 29.97 in 10.0 mi SSW 9.2 mph - N/A   Scattered Clouds
5:34 PM 73.4 °F 60.8 °F 65% 29.97 in 10.0 mi South 6.9 mph - N/A   Scattered Clouds
5:55 PM 73.4 °F 60.8 °F 65% 29.97 in 10.0 mi South 6.9 mph - N/A   Scattered Clouds
6:15 PM 73.4 °F 60.8 °F 65% 29.96 in 10.0 mi SSW 9.2 mph - N/A   Clear
6:34 PM 73.4 °F 60.8 °F 65% 29.95 in 10.0 mi SW 10.4 mph - N/A   Scattered Clouds
6:55 PM 73.4 °F 60.8 °F 65% 29.95 in 10.0 mi SW 8.1 mph - N/A   Scattered Clouds
7:15 PM 71.6 °F 60.8 °F 69% 29.95 in 10.0 mi SW 5.8 mph - N/A   Scattered Clouds
7:34 PM 71.6 °F 57.2 °F 60% 29.95 in 10.0 mi SSW 10.4 mph - N/A   Mostly Cloudy
7:55 PM 71.6 °F 59.0 °F 64% 29.95 in 10.0 mi SW 8.1 mph - N/A   Overcast
8:15 PM 69.8 °F 62.6 °F 78% 29.95 in 7.0 mi WSW 10.4 mph - N/A Rain Rain
8:34 PM 66.2 °F 62.6 °F 88% 29.96 in 7.0 mi West 6.9 mph - N/A Rain Rain
8:55 PM 64.4 °F 62.6 °F 94% 29.95 in 10.0 mi Calm Calm - N/A Rain Rain
9:14 PM 64.4 °F 64.4 °F 100% 29.95 in 7.0 mi West 3.5 mph - N/A   Overcast
9:35 PM 64.4 °F 64.4 °F 100% 29.94 in 10.0 mi Calm Calm - N/A   Overcast
9:55 PM 64.4 °F 62.6 °F 94% 29.94 in 10.0 mi Calm Calm - N/A Rain Light Rain
10:14 PM 64.4 °F 62.6 °F 94% 29.94 in 10.0 mi Calm Calm - N/A   Overcast
10:35 PM 64.4 °F 64.4 °F 100% 29.94 in 10.0 mi Calm Calm - N/A   Overcast
10:55 PM 64.4 °F 64.4 °F 100% 29.93 in 10.0 mi Calm Calm - N/A   Overcast
11:14 PM 66.2 °F 64.4 °F 94% 29.92 in 10.0 mi Calm Calm - N/A   Overcast
11:35 PM 64.4 °F 64.4 °F 100% 29.92 in 5.0 mi SW 3.5 mph - N/A Rain Rain
11:55 PM 64.4 °F 64.4 °F 100% 29.92 in 10.0 mi Calm Calm - N/A   Overcast